{"data":{"norad_id":65320,"intl_designator":"2025-188F","name":"FFLY01","alt_names":[],"object_type":"PAYLOAD","status":"ACTIVE","operator":null,"country":"IND","launch_date":"2025-08-26","launch_site_code":"AFWTR","launch_vehicle":null,"mission":null,"orbit_class":"UNKNOWN","rcs_meters":null,"size_class":null,"mass_kg":null,"dimensions":null,"purposes":[],"wikipedia_slug":null,"has_3d_model":false,"image_url":null,"decayed_at":null,"tle_current":{"epoch":"2026-09-20T23:02:18.919680Z","epoch_age_seconds":119053,"freshness":"FRESH","line1":"1 65320U 25188F   26263.95994120  .00000879  00000+0  90325-4 0  9994","line2":"2 65320  97.7303 337.5463 0008893 209.0486 151.0240 14.92841822 58192","mean_motion":14.92841822,"eccentricity":0.0008893,"inclination_deg":97.7303,"raan_deg":337.5463,"arg_perigee_deg":209.0486,"mean_anomaly_deg":151.024,"bstar":9.0325e-5,"rev_number":5819,"period_min":96.460320094114,"perigee_km":582.88365649673,"apogee_km":595.27554794544,"semimajor_km":6967.2166022211,"source":"CELESTRAK","updated_at":"2026-09-21T09:00:15.250416Z"}}}